Location: Breitenbronn
(49.3658°N, 9.0237°E)
Time: 00:12:25
(UTC+00:00)

Daily predictions for brighter satellites

Satellite Brightness Start Highest point End
(mag) Time Altitude Azimuth Time Altitude Azimuth Time Altitude Azimuth
Cosmos 1328 3.7 00:02:26 37° SW 00:03:37 60° WNW 00:07:11 10° N
OPS 8737 4.0 00:01:56 10° NW 00:04:58 86° NE 00:06:00 38° SE
Cosmos 1634 Rocket 4.1 00:00:27 10° NNW 00:06:40 63° W 00:10:18 25° SSW
Cosmos 2082 Rocket 4.2 00:03:34 10° NNW 00:08:24 27° NE 00:13:14 10° ESE
Cosmos 2278 Rocket 3.8 00:11:06 15° SE 00:14:24 24° ESE 00:18:49 10° NE
SJ 16-02 1.7 00:15:31 26° SW 00:17:46 55° WNW 00:22:03 10° NNE
CZ-2C R/B 2.6 00:14:32 22° SSE 00:18:01 84° ENE 00:23:22 10° NNW
USA 229 DEB 4.2 00:12:25 10° NW 00:19:47 74° NE 00:27:53 10° SE
USA 229 4.2 00:12:33 10° NW 00:19:53 73° NE 00:27:58 10° SE
Cosmos 1943 Rocket 3.7 00:17:38 14° SE 00:20:56 23° ESE 00:25:12 10° NE
Cosmos 2151 Rocket 3.9 00:17:22 10° N 00:21:46 61° ENE 00:24:39 21° SSE
Cosmos 371 Rocket 3.3 00:19:30 29° SSW 00:21:59 78° ESE 00:26:50 10° NNE
CZ-2D R/B 4.5 00:20:01 10° NE 00:22:40 14° E 00:25:19 10° ESE
NOSS 2-1 (C) 4.3 00:20:38 10° WNW 00:23:57 30° SW 00:24:43 28° SW
USA 307 3.0 00:20:42 13° WSW 00:24:04 65° NNW 00:28:01 10° ENE
Okean 2 Rocket 3.6 00:20:17 10° N 00:24:42 54° ENE 00:27:51 18° SSE
NOSS 2-1 (E) 4.3 00:24:16 10° WNW 00:27:39 32° SW 00:28:38 28° SSW
Cosmos 1741 Rocket 4.0 00:26:35 26° SSW 00:29:37 84° ESE 00:34:58 10° NNE
Okean 1 Rocket 3.7 00:30:27 10° N 00:34:50 53° ENE 00:38:19 15° SSE
Cosmos 375 4.4 00:31:47 10° NW 00:36:23 90° NW 00:40:14 10° SE
Cosmos 1025 Rocket 3.8 00:37:03 19° SSE 00:39:40 42° E 00:43:42 10° NNE
Nadezhda 4 Rocket 4.1 00:38:07 21° S 00:42:28 75° E 00:48:44 10° NNE
Cosmos 1844 Rocket 4.4 00:37:46 10° W 00:42:29 26° NW 00:47:15 10° NNE
Cosmos 1378 Rocket 3.5 00:40:25 27° SSW 00:42:46 83° W 00:47:11 10° N
USA 234 3.2 00:38:33 10° ENE 00:45:08 86° SSE 00:51:09 13° WSW
In-Cosmos 22 Rocket 4.3 00:44:33 22° S 00:48:18 83° E 00:54:05 10° NNE
Cosmos 1340 Rocket 2.6 00:46:09 10° NNW 00:49:59 76° W 00:52:07 25° S
ADEOS II 4.3 00:50:31 10° NE 00:53:58 17° E 00:57:24 10° SE
USA 59 Rocket 1.7 00:51:39 10° W 00:54:17 17° WSW 00:54:17 17° WSW
Cosmos 158 Rocket 4.0 00:49:38 10° NNW 00:54:46 78° ENE 00:59:44 10° SSE
Cosmos 1606 4.2 00:53:31 10° NW 00:55:17 15° W 00:55:42 14° W
ATLAS 3B R/B 3.0 00:55:08 10° NW 01:02:55 64° WSW 01:10:22 10° SSE
Nimbus 7 Rocket 4.5 00:58:06 10° NNE 01:04:00 77° WNW 01:08:22 19° SSW
Cosmos 304 Rocket 4.3 01:00:52 19° SW 01:04:03 48° WNW 01:08:42 10° NNE
MOZ.5/SAFIR/RUBIN 5/SL-8 3.9 01:03:04 11° SSE 01:07:26 75° ENE 01:12:02 10° N
H-2A R/B 3.5 01:06:39 21° SW 01:07:50 25° W 01:10:54 10° NW
FENGYUN 3A 4.4 01:06:19 10° NNE 01:11:30 46° E 01:16:14 12° S
Cosmos 2026 Rocket 4.2 01:06:30 15° S 01:11:51 70° E 01:18:03 10° NNE
H-2A R/B 2.6 01:10:15 10° NNE 01:14:07 47° E 01:17:10 15° S
Cosmos 1869 3.9 01:13:22 10° NNW 01:16:48 36° W 01:18:36 22° SW
Cosmos 1814 Rocket 4.5 01:12:23 10° NW 01:17:27 44° WSW 01:21:14 17° S
USA 305 2.4 01:15:41 10° NW 01:17:57 36° NNE 01:19:25 10° E
IDEFIX/ARIANE 42P 2.6 01:12:47 10° NNE 01:18:04 83° ESE 01:22:10 17° SSW
SL-24 R/B - RUBIN 2 4.2 01:14:44 10° NW 01:19:15 38° WSW 01:22:27 16° S
ATLAS 2AS CENTAUR R/B 3.4 01:13:09 10° WSW 01:20:01 50° NW 01:26:43 10° NE
Cosmos 1455 Rocket 3.2 01:16:41 10° N 01:21:04 73° E 01:25:22 10° SSE
Cosmos 1833 Rocket 3.5 01:17:30 10° NW 01:22:24 31° WSW 01:25:45 17° SSW
Cosmos 2221 Rocket 3.8 01:21:46 20° SSW 01:24:42 57° WNW 01:29:05 10° N
Cosmos 1812 2.1 01:24:59 10° N 01:28:11 88° E 01:30:44 15° S
MSX 3.8 01:23:48 10° NNE 01:29:35 88° WNW 01:34:26 15° SSW
NPP 3.7 01:28:02 10° NNE 01:33:28 88° WNW 01:38:05 15° SSW
CZ-2C R/B 4.2 01:29:28 10° N 01:34:24 35° WNW 01:38:34 13° SW
Meteor 1-11 4.4 01:31:27 16° SSW 01:36:09 72° WNW 01:41:59 10° N
ATLAS 5 CENTAUR R/B 3.1 01:34:45 10° SSE 01:36:38 15° ESE 01:38:36 10° ENE
Sich 1 Rocket 4.5 01:32:39 10° NNW 01:36:40 34° W 01:39:38 16° SSW
Cosmos 332 Rocket 4.0 01:37:42 16° SW 01:41:31 66° WNW 01:46:20 10° NNE
SL-4 R/B 2.2 01:38:09 10° WNW 01:42:08 69° NNE 01:45:54 10° E
Cosmos 2228 3.8 01:38:12 10° N 01:42:14 49° ENE 01:46:14 10° SSE
COSMOS 2406 3.6 01:37:44 10° NNW 01:43:30 69° ENE 01:49:13 10° SE
Resurs 1-4 Rocket 2.3 01:43:53 10° NNE 01:49:10 70° ESE 01:54:25 10° S
Cosmos 1666 2.9 01:49:38 11° SSE 01:50:50 21° E 01:52:12 10° NE
Cosmos 2082 Rocket 2.2 01:47:19 10° NNW 01:52:59 69° WSW 01:58:40 10° SSE
USA 307 4.0 01:50:48 10° WNW 01:54:34 40° N 01:58:12 10° ENE
Meteor 1-27 4.4 01:50:33 10° N 01:56:25 85° ENE 02:02:16 10° SSE
Cosmos 2278 Rocket 2.4 01:52:55 13° SW 01:57:59 64° WNW 02:03:39 10° NNE
CZ-2C R/B 4.4 01:56:00 10° WSW 01:58:58 16° W 02:02:05 10° NW
Cosmos 2098 Rocket 2.4 01:56:21 10° N 02:00:14 79° W 02:03:31 10° S
CZ-2D R/B 2.2 01:58:02 10° NNE 02:03:29 84° ESE 02:08:50 10° SSW
Cosmos 1943 Rocket 2.4 01:59:08 12° SW 02:04:11 63° WNW 02:09:41 10° NNE
Cosmos 1544 Rocket 3.9 02:00:43 10° N 02:05:01 67° ENE 02:09:18 10° SSE
SL-16 R/B 3.3 01:59:25 10° SE 02:05:28 58° ENE 02:11:36 10° N
ALOS 2.6 02:01:21 10° NNE 02:05:54 61° E 02:10:25 10° S
AQUA 4.5 02:16:14 10° NNE 02:20:51 53° E 02:25:26 10° S
Cosmos 1553 Rocket 4.1 02:16:51 10° NNW 02:22:48 59° W 02:28:45 10° S
S3M 4.3 02:18:15 10° N 02:24:40 77° E 02:31:04 10° SSE
Cosmos 1503 Rocket 4.3 02:21:46 10° S 02:26:59 66° ESE 02:32:10 10° NNE
USA 234 4.0 02:21:39 10° ENE 02:27:55 52° NNW 02:34:13 10° W
NOAA 11 4.3 02:26:54 10° NNE 02:32:27 85° WNW 02:37:55 10° SSW
Cosmos 2084 3.2 02:29:26 10° NW 02:33:25 85° SW 02:37:20 10° SE
Cosmos 1975 Rocket 3.8 02:29:45 10° SW 02:33:56 40° WNW 02:38:09 10° N
ADEOS II 2.1 02:28:53 10° NNE 02:34:08 76° WNW 02:39:21 10° SSW
Cosmos 2369 Rocket 3.3 02:29:31 10° S 02:34:48 40° ESE 02:40:06 10° NE
Cosmos 292 Rocket 4.3 02:30:39 10° SW 02:35:18 48° WNW 02:39:59 10° NNE
Cosmos 2315 Rocket 4.4 02:31:29 10° N 02:37:47 72° E 02:44:06 10° SSE
